Bedford County, PA

9:55 PM EST on December 14, 2019 (GMT -0500)
Bedford County

Weather History for KHMZ - November, 2019

Change the Weather History Date:

Tuesday, November 19, 2019

  Actual Average (WUND) Record (WUND)
Temperature  
Mean Temperature 36 °F -  
Max Temperature 48 °F - - (-1)
Min Temperature 24 °F - - (-1)
Degree Days  
Heating Degree Days 29    
Moisture  
Dew Point 31 °F    
Average Humidity 75    
Maximum Humidity 98    
Minimum Humidity 53    
Precipitation  
Precipitation 0.00 in - - ()
Sea Level Pressure  
Sea Level Pressure 29.81 in    
Wind  
Wind Speed 1 mph ()    
Max Wind Speed 9 mph    
Max Gust Speed -    
Visibility 6.2 miles    
Events Fog    
Averages and records for this station are not official NWS values.
T = Trace of Precipitation, MM = Missing Value Source: Averaged Metar Reports

Daily Weather History Graph

Daily Weather History Graph

Search for Another Location

Airport or City:

Astronomy

Nov. 19, 2019 Rise Set
Actual Time 7:03 AM EST 4:54 PM EST
Civil Twilight 6:34 AM EST 5:23 PM EST
Nautical Twilight 6:01 AM EST 5:56 PM EST
Astronomical Twilight 5:29 AM EST 6:29 PM EST
Moon 11:48 PM EST (11/19) 1:13 PM EST (11/19)
Length of Visible Light 10h 49m
Length of Day
9h 51m
Waning Gibbous, 52% of the Moon is Illuminated
Nov 19
Waning Gibbous
Nov 19
Last Quarter
Nov 26
New
Dec 4
First Quarter
Dec 12
Full

Hourly Weather History & Observations

Time (EST) Temp. Windchill Dew Point Humidity Pressure Visibility Wind Dir Wind Speed Gust Speed Precip Events Conditions
12:15 AM 31.3 °F - 30.7 °F 98% 29.73 in 7.0 mi Calm Calm - N/A   Clear
12:35 AM 30.7 °F - 30.2 °F 98% 29.73 in 7.0 mi Calm Calm - N/A   Clear
12:55 AM 29.7 °F - 28.9 °F 97% 29.73 in 4.0 mi Calm Calm - N/A   Clear
1:15 AM 28.4 °F - 27.9 °F 98% 29.73 in 5.0 mi Calm Calm - N/A   Clear
1:35 AM 28.0 °F - 27.5 °F 98% 29.73 in 5.0 mi Calm Calm - N/A   Clear
2:15 AM 26.8 °F - 26.1 °F 97% 29.74 in 5.0 mi Calm Calm - N/A   Scattered Clouds
2:35 AM 26.8 °F - 26.2 °F 98% 29.74 in 3.0 mi Calm Calm - N/A   Mostly Cloudy
2:55 AM 25.7 °F - 25.0 °F 97% 29.75 in 0.5 mi Calm Calm - N/A Fog Light Freezing Fog
3:15 AM 26.1 °F - 25.5 °F 98% 29.74 in 0.2 mi Calm Calm - N/A Fog Light Freezing Fog
3:35 AM 25.5 °F - 24.8 °F 97% 29.75 in 0.2 mi Calm Calm - N/A Fog Light Freezing Fog
3:55 AM 25.0 °F - 24.3 °F 97% 29.75 in 0.2 mi Calm Calm - N/A Fog Light Freezing Fog
4:35 AM 24.4 °F - 23.9 °F 98% 29.75 in 0.2 mi Calm Calm - N/A Fog Light Freezing Fog
4:55 AM - - - N/A% 29.75 in 0.2 mi Calm Calm - N/A Fog Light Freezing Fog
5:15 AM - - - N/A% 29.75 in 0.2 mi Calm Calm - N/A Fog Light Freezing Fog
5:35 AM - - - N/A% 29.76 in 0.2 mi Calm Calm - N/A Fog Fog
5:55 AM - - - N/A% 29.77 in 0.2 mi Calm Calm - N/A Fog Fog
6:35 AM - - - N/A% 29.78 in 0.2 mi Calm Calm - N/A Fog Fog
6:55 AM - - - N/A% 29.79 in 0.2 mi Calm Calm - N/A Fog Fog
7:15 AM - - - N/A% 29.80 in 0.2 mi Calm Calm - N/A Fog Fog
7:35 AM - - - N/A% 29.81 in 0.2 mi Calm Calm - N/A Fog Light Freezing Fog
7:55 AM - - - N/A% 29.82 in 0.2 mi Calm Calm - N/A Fog Fog
8:15 AM - - - N/A% 29.82 in 0.5 mi Calm Calm - N/A Fog Fog
8:35 AM - - - N/A% 29.82 in 1.2 mi Calm Calm - N/A   Overcast
8:55 AM - - - N/A% 29.82 in 1.8 mi Calm Calm - N/A   Overcast
9:15 AM - - - N/A% 29.82 in 1.0 mi Calm Calm - N/A   Overcast
9:35 AM - - - N/A% 29.82 in 5.0 mi Calm Calm - N/A   Haze
9:55 AM 34.0 °F - 33.4 °F 98% 29.82 in 7.0 mi Calm Calm - N/A   Clear
10:15 AM 36.7 °F - 36.0 °F 97% 29.82 in 10.0 mi Calm Calm - N/A   Clear
10:35 AM 41.5 °F - 33.3 °F 72% 29.81 in 10.0 mi Calm Calm - N/A   Clear
10:55 AM 44.2 °F - 32.7 °F 64% 29.81 in 10.0 mi Calm Calm - N/A   Clear
11:15 AM 43.9 °F 41.3 °F 32.2 °F 63% 29.80 in 10.0 mi ENE 4.6 mph - N/A   Clear
11:55 AM 46.2 °F 45.0 °F 32.0 °F 58% 29.79 in 10.0 mi NNE 3.5 mph - N/A   Clear
12:15 PM 48.4 °F - 32.2 °F 54% 29.79 in 10.0 mi East 4.6 mph - N/A   Clear
12:30 PM 48.2 °F - 31.6 °F 53% 29.78 in 10.0 mi Calm Calm - N/A   Clear
12:50 PM - - - N/A% - - North - - N/A   Unknown
1:10 PM - - - N/A% - - North - - N/A   Unknown
2:10 PM - - - N/A% - - North - - N/A   Unknown
2:30 PM 46.9 °F - 31.8 °F 56% 29.79 in 10.0 mi NW 5.8 mph - N/A   Overcast
2:50 PM 46.8 °F - 31.8 °F 56% 29.79 in 10.0 mi WNW 5.8 mph - N/A   Overcast
3:30 PM 46.4 °F 44.3 °F 32.0 °F 57% 29.80 in 7.0 mi WNW 4.6 mph - N/A   Overcast
3:50 PM 45.7 °F 41.5 °F 32.0 °F 59% 29.81 in 7.0 mi NW 8.1 mph - N/A   Overcast
4:10 PM 45.0 °F 40.1 °F 32.0 °F 60% 29.82 in 10.0 mi WNW 9.2 mph - N/A   Overcast
4:30 PM 44.4 °F 40.5 °F 32.2 °F 62% 29.82 in 7.0 mi NW 6.9 mph - N/A   Overcast
4:50 PM 43.7 °F 40.3 °F 32.2 °F 64% 29.83 in 10.0 mi NW 5.8 mph - N/A   Overcast
5:10 PM 43.2 °F 41.5 °F 32.2 °F 65% 29.84 in 7.0 mi NW 3.5 mph - N/A   Overcast
5:30 PM 43.2 °F - 32.0 °F 65% 29.85 in 10.0 mi Calm Calm - N/A   Overcast
5:50 PM 43.0 °F 40.3 °F 32.2 °F 66% 29.85 in 7.0 mi NW 4.6 mph - N/A   Overcast
6:10 PM 42.4 °F 39.6 °F 32.2 °F 67% 29.85 in 7.0 mi NW 4.6 mph - N/A   Overcast
6:30 PM 42.3 °F - 32.0 °F 67% 29.85 in 10.0 mi Calm Calm - N/A   Overcast
7:10 PM 42.1 °F 40.2 °F 32.0 °F 67% 29.86 in 10.0 mi WNW 3.5 mph - N/A   Overcast
7:30 PM 41.9 °F - 32.0 °F 68% 29.86 in 10.0 mi Calm Calm - N/A   Overcast
7:50 PM 41.2 °F - 32.5 °F 71% 29.87 in 10.0 mi Calm Calm - N/A   Overcast
8:10 PM 41.2 °F - 32.0 °F 70% 29.87 in 10.0 mi Calm Calm - N/A   Overcast
8:30 PM 41.4 °F - 32.0 °F 69% 29.87 in 10.0 mi Calm Calm - N/A   Overcast
8:50 PM 41.0 °F - 32.0 °F 70% 29.88 in 10.0 mi Calm Calm - N/A   Overcast
9:10 PM 41.0 °F - 32.2 °F 71% 29.88 in 10.0 mi Calm Calm - N/A   Overcast
9:30 PM 41.0 °F 39.0 °F 32.4 °F 71% 29.89 in 10.0 mi NNW 3.5 mph - N/A   Overcast
9:50 PM 40.5 °F 38.4 °F 32.4 °F 73% 29.89 in 10.0 mi NW 3.5 mph - N/A   Overcast
10:10 PM 40.5 °F - 32.7 °F 74% 29.89 in 10.0 mi Calm Calm - N/A   Overcast
10:30 PM 41.0 °F - 32.2 °F 71% 29.89 in 10.0 mi Calm Calm - N/A   Overcast
10:50 PM 40.1 °F - 32.5 °F 74% 29.89 in 10.0 mi Calm Calm - N/A   Overcast
11:10 PM 40.1 °F - 32.4 °F 74% 29.89 in 10.0 mi Calm Calm - N/A   Overcast
11:30 PM 40.1 °F - 32.4 °F 74% 29.89 in 10.0 mi Calm Calm - N/A   Overcast
11:50 PM 40.1 °F - 32.9 °F 75% 29.90 in 10.0 mi Calm Calm - N/A   Overcast